date,time,SUV Intensity [MED/Hr],UV Index,Daily total [MED],Since Last [MED]
16/10/2023,00:06:51,-0.000,0.0,0.0,0.0
16/10/2023,00:07:51,0.001,0.0,0.0,0.0
16/10/2023,00:08:51,0.000,0.0,0.0,0.0
16/10/2023,00:09:51,-0.000,0.0,0.0,0.0
16/10/2023,00:10:52,0.000,0.0,0.0,0.0
16/10/2023,00:11:52,-0.000,0.0,0.0,0.0
16/10/2023,00:12:52,0.000,0.0,0.0,0.0
16/10/2023,00:13:51,0.000,0.0,0.0,0.0
16/10/2023,00:14:51,-0.000,0.0,0.0,0.0
16/10/2023,00:15:52,0.000,0.0,0.0,0.0
16/10/2023,00:16:52,-0.000,0.0,0.0,0.0
16/10/2023,00:17:52,0.000,0.0,0.0,0.0
16/10/2023,00:18:51,0.001,0.0,0.0,0.0
16/10/2023,00:19:52,0.000,0.0,0.0,0.0
16/10/2023,00:20:52,-0.000,0.0,0.0,0.0
16/10/2023,00:21:52,0.000,0.0,0.0,0.0
16/10/2023,00:22:52,0.000,0.0,0.0,0.0
16/10/2023,00:23:52,0.001,0.0,0.0,0.0
16/10/2023,00:24:52,-0.000,0.0,0.0,0.0
16/10/2023,00:25:52,0.000,0.0,0.0,0.0
16/10/2023,00:26:52,-0.000,0.0,0.0,0.0
16/10/2023,00:27:53,0.000,0.0,0.0,0.0
16/10/2023,00:28:52,0.000,0.0,0.0,0.0
16/10/2023,00:29:52,0.001,0.0,0.0,0.0
16/10/2023,00:30:52,-0.000,0.0,0.0,0.0
16/10/2023,00:31:52,0.000,0.0,0.0,0.0
16/10/2023,00:32:53,0.000,0.0,0.0,0.0
16/10/2023,00:33:52,0.000,0.0,0.0,0.0
16/10/2023,00:34:52,-0.000,0.0,0.0,0.0
16/10/2023,00:35:52,0.000,0.0,0.0,0.0
16/10/2023,00:36:52,0.001,0.0,0.0,0.0
16/10/2023,00:37:53,-0.000,0.0,0.0,0.0
16/10/2023,00:38:53,-0.000,0.0,0.0,0.0
16/10/2023,00:39:52,0.000,0.0,0.0,0.0
16/10/2023,00:40:52,0.000,0.0,0.0,0.0
16/10/2023,00:41:53,0.000,0.0,0.0,0.0
16/10/2023,00:42:53,-0.000,0.0,0.0,0.0
16/10/2023,00:43:53,0.000,0.0,0.0,0.0
16/10/2023,00:44:52,0.001,0.0,0.0,0.0
16/10/2023,00:45:52,0.001,0.0,0.0,0.0
16/10/2023,00:46:53,-0.000,0.0,0.0,0.0
16/10/2023,00:47:53,0.000,0.0,0.0,0.0
16/10/2023,00:48:53,0.000,0.0,0.0,0.0
16/10/2023,00:49:52,0.000,0.0,0.0,0.0
16/10/2023,00:50:52,-0.000,0.0,0.0,0.0
16/10/2023,00:51:53,0.000,0.0,0.0,0.0
16/10/2023,00:52:53,0.000,0.0,0.0,0.0
16/10/2023,00:53:53,0.000,0.0,0.0,0.0
16/10/2023,00:54:53,0.000,0.0,0.0,0.0
16/10/2023,00:55:53,0.000,0.0,0.0,0.0
16/10/2023,00:56:53,0.000,0.0,0.0,0.0
16/10/2023,00:57:53,0.000,0.0,0.0,0.0
16/10/2023,00:58:53,0.000,0.0,0.0,0.0
16/10/2023,00:59:53,0.000,0.0,0.0,0.0
16/10/2023,01:00:54,0.000,0.0,0.0,0.0
16/10/2023,01:01:53,-0.000,0.0,0.0,0.0
16/10/2023,01:02:53,-0.000,0.0,0.0,0.0
16/10/2023,01:03:53,0.000,0.0,0.0,0.0
16/10/2023,01:04:53,0.000,0.0,0.0,0.0
16/10/2023,01:05:54,-0.000,0.0,0.0,0.0
16/10/2023,01:06:54,0.000,0.0,0.0,0.0
16/10/2023,01:07:53,0.000,0.0,0.0,0.0
16/10/2023,01:08:53,0.000,0.0,0.0,0.0
16/10/2023,01:09:53,-0.000,0.0,0.0,0.0
16/10/2023,01:10:54,-0.000,0.0,0.0,0.0
16/10/2023,01:11:54,-0.001,0.0,0.0,0.0
16/10/2023,01:12:54,0.001,0.0,0.0,0.0
16/10/2023,01:13:53,0.000,0.0,0.0,0.0
16/10/2023,01:14:54,-0.000,0.0,0.0,0.0
16/10/2023,01:15:54,-0.000,0.0,0.0,0.0
16/10/2023,01:16:54,-0.000,0.0,0.0,0.0
16/10/2023,01:17:54,0.000,0.0,0.0,0.0
16/10/2023,01:18:53,-0.000,0.0,0.0,0.0
16/10/2023,01:19:54,0.000,0.0,0.0,0.0
16/10/2023,01:20:54,0.000,0.0,0.0,0.0
16/10/2023,01:21:54,0.000,0.0,0.0,0.0
16/10/2023,01:22:54,0.000,0.0,0.0,0.0
16/10/2023,01:23:54,-0.001,0.0,0.0,0.0
16/10/2023,01:24:54,0.001,0.0,0.0,0.0
16/10/2023,01:25:54,0.000,0.0,0.0,0.0
16/10/2023,01:26:54,0.000,0.0,0.0,0.0
16/10/2023,01:27:54,0.000,0.0,0.0,0.0
16/10/2023,01:28:54,-0.000,0.0,0.0,0.0
16/10/2023,01:29:54,0.000,0.0,0.0,0.0
16/10/2023,01:30:54,0.001,0.0,0.0,0.0
16/10/2023,01:31:55,0.001,0.0,0.0,0.0
16/10/2023,01:32:55,0.001,0.0,0.0,0.0
16/10/2023,01:33:54,0.001,0.0,0.0,0.0
16/10/2023,01:34:54,0.001,0.0,0.0,0.0
16/10/2023,01:35:54,-0.000,0.0,0.0,0.0
16/10/2023,01:36:55,0.002,0.0,0.0,0.0
16/10/2023,01:37:55,0.001,0.0,0.0,0.0
16/10/2023,01:38:54,-0.000,0.0,0.0,0.0
16/10/2023,01:39:54,0.001,0.0,0.0,0.0
16/10/2023,01:40:54,0.000,0.0,0.0,0.0
16/10/2023,01:41:55,0.000,0.0,0.0,0.0
16/10/2023,01:42:55,0.000,0.0,0.0,0.0
16/10/2023,01:43:55,0.000,0.0,0.0,0.0
16/10/2023,01:44:54,0.000,0.0,0.0,0.0
16/10/2023,01:45:54,-0.000,0.0,0.0,0.0
16/10/2023,01:46:55,0.000,0.0,0.0,0.0
16/10/2023,01:47:55,0.000,0.0,0.0,0.0
16/10/2023,01:48:55,0.000,0.0,0.0,0.0
16/10/2023,01:49:55,-0.000,0.0,0.0,0.0
16/10/2023,01:50:54,0.000,0.0,0.0,0.0
16/10/2023,01:51:55,0.001,0.0,0.0,0.0
16/10/2023,01:52:55,0.001,0.0,0.0,0.0
16/10/2023,01:53:55,-0.001,0.0,0.0,0.0
16/10/2023,01:54:55,-0.000,0.0,0.0,0.0
16/10/2023,01:55:56,0.001,0.0,0.0,0.0
16/10/2023,01:56:55,0.000,0.0,0.0,0.0
16/10/2023,01:57:55,0.001,0.0,0.0,0.0
16/10/2023,01:58:55,0.000,0.0,0.0,0.0
16/10/2023,01:59:55,-0.000,0.0,0.0,0.0
16/10/2023,02:00:56,0.000,0.0,0.0,0.0
16/10/2023,02:01:55,0.001,0.0,0.0,0.0
16/10/2023,02:02:55,0.000,0.0,0.0,0.0
16/10/2023,02:03:55,0.000,0.0,0.0,0.0
16/10/2023,02:04:55,0.001,0.0,0.0,0.0
16/10/2023,02:05:56,0.000,0.0,0.0,0.0
16/10/2023,02:06:56,0.001,0.0,0.0,0.0
16/10/2023,02:07:55,0.000,0.0,0.0,0.0
16/10/2023,02:08:55,0.001,0.0,0.0,0.0
16/10/2023,02:09:56,-0.000,0.0,0.0,0.0
16/10/2023,02:10:56,0.000,0.0,0.0,0.0
16/10/2023,02:11:56,0.001,0.0,0.0,0.0
16/10/2023,02:12:55,0.001,0.0,0.0,0.0
16/10/2023,02:13:55,0.001,0.0,0.0,0.0
16/10/2023,02:14:56,0.000,0.0,0.0,0.0
16/10/2023,02:15:56,0.001,0.0,0.0,0.0
16/10/2023,02:16:56,0.000,0.0,0.0,0.0
16/10/2023,02:17:55,0.000,0.0,0.0,0.0
16/10/2023,02:18:56,0.001,0.0,0.0,0.0
16/10/2023,02:19:56,0.001,0.0,0.0,0.0
16/10/2023,02:20:56,-0.000,0.0,0.0,0.0
16/10/2023,02:21:56,-0.000,0.0,0.0,0.0
16/10/2023,02:22:56,0.000,0.0,0.0,0.0
16/10/2023,02:23:56,0.001,0.0,0.0,0.0
16/10/2023,02:24:56,0.000,0.0,0.0,0.0
16/10/2023,02:25:56,0.000,0.0,0.0,0.0
16/10/2023,02:26:56,0.000,0.0,0.0,0.0
16/10/2023,02:27:56,0.000,0.0,0.0,0.0
16/10/2023,02:28:56,0.000,0.0,0.0,0.0
16/10/2023,02:29:57,0.000,0.0,0.0,0.0
16/10/2023,02:30:56,0.000,0.0,0.0,0.0
16/10/2023,02:31:56,-0.001,0.0,0.0,0.0
16/10/2023,02:32:56,0.001,0.0,0.0,0.0
16/10/2023,02:33:57,0.000,0.0,0.0,0.0
16/10/2023,02:34:57,0.001,0.0,0.0,0.0
16/10/2023,02:35:56,0.000,0.0,0.0,0.0
16/10/2023,02:36:56,0.001,0.0,0.0,0.0
16/10/2023,02:37:57,0.000,0.0,0.0,0.0
16/10/2023,02:38:57,0.001,0.0,0.0,0.0
16/10/2023,02:39:56,0.000,0.0,0.0,0.0
16/10/2023,02:40:56,0.001,0.0,0.0,0.0
16/10/2023,02:41:56,0.001,0.0,0.0,0.0
16/10/2023,02:42:57,0.000,0.0,0.0,0.0
16/10/2023,02:43:57,0.001,0.0,0.0,0.0
16/10/2023,02:44:57,0.000,0.0,0.0,0.0
16/10/2023,02:45:56,0.001,0.0,0.0,0.0
16/10/2023,02:46:57,-0.000,0.0,0.0,0.0
16/10/2023,02:47:57,0.002,0.0,0.0,0.0
16/10/2023,02:48:57,0.000,0.0,0.0,0.0
16/10/2023,02:49:57,0.000,0.0,0.0,0.0
16/10/2023,02:50:57,0.000,0.0,0.0,0.0
16/10/2023,02:51:57,0.001,0.0,0.0,0.0
16/10/2023,02:52:57,0.001,0.0,0.0,0.0
16/10/2023,02:53:57,0.001,0.0,0.0,0.0
16/10/2023,02:54:57,0.001,0.0,0.0,0.0
16/10/2023,02:55:57,0.001,0.0,0.0,0.0
16/10/2023,02:56:57,0.001,0.0,0.0,0.0
16/10/2023,02:57:57,0.001,0.0,0.0,0.0
16/10/2023,02:58:57,0.000,0.0,0.0,0.0
16/10/2023,02:59:59,0.000,0.0,0.0,0.0
16/10/2023,03:00:57,0.000,0.0,0.0,0.0
16/10/2023,03:01:57,0.000,0.0,0.0,0.0
16/10/2023,03:02:58,0.002,0.0,0.0,0.0
16/10/2023,03:03:57,0.001,0.0,0.0,0.0
16/10/2023,03:04:57,-0.000,0.0,0.0,0.0
16/10/2023,03:05:57,0.001,0.0,0.0,0.0
16/10/2023,03:06:58,-0.000,0.0,0.0,0.0
16/10/2023,03:07:58,0.001,0.0,0.0,0.0
16/10/2023,03:08:57,0.001,0.0,0.0,0.0
16/10/2023,03:09:57,0.001,0.0,0.0,0.0
16/10/2023,03:10:58,0.000,0.0,0.0,0.0
16/10/2023,03:11:58,0.001,0.0,0.0,0.0
16/10/2023,03:12:58,0.001,0.0,0.0,0.0
16/10/2023,03:13:57,0.000,0.0,0.0,0.0
16/10/2023,03:14:57,0.001,0.0,0.0,0.0
16/10/2023,03:15:58,0.001,0.0,0.0,0.0
16/10/2023,03:16:58,0.001,0.0,0.0,0.0
16/10/2023,03:17:58,0.001,0.0,0.0,0.0
16/10/2023,03:18:58,0.001,0.0,0.0,0.0
16/10/2023,03:19:58,0.000,0.0,0.0,0.0
16/10/2023,03:20:58,-0.000,0.0,0.0,0.0
16/10/2023,03:21:58,0.001,0.0,0.0,0.0
16/10/2023,03:22:57,0.001,0.0,0.0,0.0
16/10/2023,03:23:58,0.000,0.0,0.0,0.0
16/10/2023,03:24:58,0.001,0.0,0.0,0.0
16/10/2023,03:25:58,0.001,0.0,0.0,0.0
16/10/2023,03:26:59,0.001,0.0,0.0,0.0
16/10/2023,03:27:58,0.001,0.0,0.0,0.0
16/10/2023,03:28:58,-0.000,0.0,0.0,0.0
16/10/2023,03:29:58,0.001,0.0,0.0,0.0
16/10/2023,03:30:59,0.001,0.0,0.0,0.0
16/10/2023,03:31:58,0.002,0.0,0.0,0.0
16/10/2023,03:32:58,0.001,0.0,0.0,0.0
16/10/2023,03:33:58,0.001,0.0,0.0,0.0
16/10/2023,03:34:58,0.001,0.0,0.0,0.0
16/10/2023,03:35:59,0.001,0.0,0.0,0.0
16/10/2023,03:36:59,0.001,0.0,0.0,0.0
16/10/2023,03:37:58,0.001,0.0,0.0,0.0
16/10/2023,03:38:58,0.000,0.0,0.0,0.0
16/10/2023,03:39:59,0.001,0.0,0.0,0.0
16/10/2023,03:40:59,0.000,0.0,0.0,0.0
16/10/2023,03:41:58,0.002,0.0,0.0,0.0
16/10/2023,03:42:58,-0.000,0.0,0.0,0.0
16/10/2023,03:43:59,-0.000,0.0,0.0,0.0
16/10/2023,03:44:59,0.000,0.0,0.0,0.0
16/10/2023,03:45:59,0.001,0.0,0.0,0.0
16/10/2023,03:46:58,0.001,0.0,0.0,0.0
16/10/2023,03:47:59,0.001,0.0,0.0,0.0
16/10/2023,03:48:59,0.001,0.0,0.0,0.0
16/10/2023,03:49:59,0.000,0.0,0.0,0.0
16/10/2023,03:50:59,0.000,0.0,0.0,0.0
16/10/2023,03:51:58,-0.000,0.0,0.0,0.0
16/10/2023,03:52:59,0.001,0.0,0.0,0.0
16/10/2023,03:53:59,0.002,0.0,0.0,0.0
16/10/2023,03:54:59,0.001,0.0,0.0,0.0
16/10/2023,03:55:58,0.001,0.0,0.0,0.0
16/10/2023,03:56:59,-0.000,0.0,0.0,0.0
16/10/2023,03:57:59,0.001,0.0,0.0,0.0
16/10/2023,03:58:59,0.001,0.0,0.0,0.0
16/10/2023,03:59:59,0.001,0.0,0.0,0.0
16/10/2023,04:00:59,0.001,0.0,0.0,0.0
16/10/2023,04:01:59,0.000,0.0,0.0,0.0
16/10/2023,04:02:59,0.001,0.0,0.0,0.0
16/10/2023,04:04:00,0.000,0.0,0.0,0.0
16/10/2023,04:04:59,0.001,0.0,0.0,0.0
16/10/2023,04:05:59,0.001,0.0,0.0,0.0
16/10/2023,04:06:59,0.001,0.0,0.0,0.0
16/10/2023,04:08:00,0.000,0.0,0.0,0.0
16/10/2023,04:09:00,0.001,0.0,0.0,0.0
16/10/2023,04:09:59,0.002,0.0,0.0,0.0
16/10/2023,04:10:59,0.001,0.0,0.0,0.0
16/10/2023,04:12:00,0.000,0.0,0.0,0.0
16/10/2023,04:13:00,0.001,0.0,0.0,0.0
16/10/2023,04:13:59,0.000,0.0,0.0,0.0
16/10/2023,04:14:59,0.002,0.0,0.0,0.0
16/10/2023,04:16:00,0.001,0.0,0.0,0.0
16/10/2023,04:17:00,0.001,0.0,0.0,0.0
16/10/2023,04:18:00,0.001,0.0,0.0,0.0
16/10/2023,04:19:00,0.001,0.0,0.0,0.0
16/10/2023,04:20:00,0.002,0.0,0.0,0.0
16/10/2023,04:21:00,0.001,0.0,0.0,0.0
16/10/2023,04:22:00,-0.000,0.0,0.0,0.0
16/10/2023,04:22:59,0.001,0.0,0.0,0.0
16/10/2023,04:24:00,0.001,0.0,0.0,0.0
16/10/2023,04:25:00,0.002,0.0,0.0,0.0
16/10/2023,04:26:00,-0.000,0.0,0.0,0.0
16/10/2023,04:27:00,-0.000,0.0,0.0,0.0
16/10/2023,04:28:00,0.001,0.0,0.0,0.0
16/10/2023,04:29:00,0.001,0.0,0.0,0.0
16/10/2023,04:30:00,0.002,0.0,0.0,0.0
16/10/2023,04:31:00,0.001,0.0,0.0,0.0
16/10/2023,04:32:01,0.001,0.0,0.0,0.0
16/10/2023,04:33:00,0.000,0.0,0.0,0.0
16/10/2023,04:34:00,0.001,0.0,0.0,0.0
16/10/2023,04:35:00,0.001,0.0,0.0,0.0
16/10/2023,04:36:00,0.001,0.0,0.0,0.0
16/10/2023,04:37:01,0.002,0.0,0.0,0.0
16/10/2023,04:38:00,0.001,0.0,0.0,0.0
16/10/2023,04:39:00,0.001,0.0,0.0,0.0
16/10/2023,04:40:01,0.000,0.0,0.0,0.0
16/10/2023,04:41:01,0.001,0.0,0.0,0.0
16/10/2023,04:42:01,0.001,0.0,0.0,0.0
16/10/2023,04:43:00,0.000,0.0,0.0,0.0
16/10/2023,04:44:01,0.001,0.0,0.0,0.0
16/10/2023,04:45:01,0.002,0.0,0.0,0.0
16/10/2023,04:46:01,-0.000,0.0,0.0,0.0
16/10/2023,04:47:00,0.001,0.0,0.0,0.0
16/10/2023,04:48:01,0.000,0.0,0.0,0.0
16/10/2023,04:49:01,0.000,0.0,0.0,0.0
16/10/2023,04:50:01,0.000,0.0,0.0,0.0
16/10/2023,04:51:00,0.000,0.0,0.0,0.0
16/10/2023,04:52:01,-0.000,0.0,0.0,0.0
16/10/2023,04:53:01,0.001,0.0,0.0,0.0
16/10/2023,04:54:01,0.001,0.0,0.0,0.0
16/10/2023,04:55:01,0.001,0.0,0.0,0.0
16/10/2023,04:56:01,0.001,0.0,0.0,0.0
16/10/2023,04:57:01,0.001,0.0,0.0,0.0
16/10/2023,04:58:01,0.001,0.0,0.0,0.0
16/10/2023,04:59:01,0.001,0.0,0.0,0.0
16/10/2023,05:00:02,0.001,0.0,0.0,0.0
16/10/2023,05:01:01,0.001,0.0,0.0,0.0
16/10/2023,05:02:01,0.001,0.0,0.0,0.0
16/10/2023,05:03:01,-0.000,0.0,0.0,0.0
16/10/2023,05:04:01,0.002,0.0,0.0,0.0
16/10/2023,05:05:02,0.002,0.0,0.0,0.0
16/10/2023,05:06:01,0.000,0.0,0.0,0.0
16/10/2023,05:07:01,0.000,0.0,0.0,0.0
16/10/2023,05:08:01,0.002,0.0,0.0,0.0
16/10/2023,05:09:02,0.001,0.0,0.0,0.0
16/10/2023,05:10:02,0.001,0.0,0.0,0.0
16/10/2023,05:11:01,0.001,0.0,0.0,0.0
16/10/2023,05:12:01,-0.000,0.0,0.0,0.0
16/10/2023,05:13:02,0.002,0.0,0.0,0.0
16/10/2023,05:14:02,0.001,0.0,0.0,0.0
16/10/2023,05:15:02,-0.000,0.0,0.0,0.0
16/10/2023,05:16:01,0.001,0.0,0.0,0.0
16/10/2023,05:17:02,0.001,0.0,0.0,0.0
16/10/2023,05:18:02,0.000,0.0,0.0,0.0
16/10/2023,05:19:01,0.001,0.0,0.0,0.0
16/10/2023,05:20:02,0.001,0.0,0.0,0.0
16/10/2023,05:21:02,0.001,0.0,0.0,0.0
16/10/2023,05:22:02,0.000,0.0,0.0,0.0
16/10/2023,05:23:02,0.002,0.0,0.0,0.0
16/10/2023,05:24:01,0.001,0.0,0.0,0.0
16/10/2023,05:25:02,0.001,0.0,0.0,0.0
16/10/2023,05:26:02,0.001,0.0,0.0,0.0
16/10/2023,05:27:02,0.001,0.0,0.0,0.0
16/10/2023,05:28:02,0.001,0.0,0.0,0.0
16/10/2023,05:29:03,0.001,0.0,0.0,0.0
16/10/2023,05:30:02,0.001,0.0,0.0,0.0
16/10/2023,05:31:02,0.000,0.0,0.0,0.0
16/10/2023,05:32:02,0.002,0.0,0.0,0.0
16/10/2023,05:33:03,0.001,0.0,0.0,0.0
16/10/2023,05:34:02,0.001,0.0,0.0,0.0
16/10/2023,05:35:02,0.001,0.0,0.0,0.0
16/10/2023,05:36:03,0.000,0.0,0.0,0.0
16/10/2023,05:37:03,0.001,0.0,0.0,0.0
16/10/2023,05:38:02,0.001,0.0,0.0,0.0
16/10/2023,05:39:02,0.001,0.0,0.0,0.0
16/10/2023,05:40:03,0.001,0.0,0.0,0.0
16/10/2023,05:41:03,0.001,0.0,0.0,0.0
16/10/2023,05:42:02,0.001,0.0,0.0,0.0
16/10/2023,05:43:02,0.002,0.0,0.0,0.0
16/10/2023,05:44:03,0.001,0.0,0.0,0.0
16/10/2023,05:45:03,-0.000,0.0,0.0,0.0
16/10/2023,05:46:02,0.002,0.0,0.0,0.0
16/10/2023,05:47:02,-0.000,0.0,0.0,0.0
16/10/2023,05:48:03,0.001,0.0,0.0,0.0
16/10/2023,05:49:05,0.001,0.0,0.0,0.0
16/10/2023,05:50:03,0.001,0.0,0.0,0.0
16/10/2023,05:51:03,0.000,0.0,0.0,0.0
16/10/2023,05:52:02,0.001,0.0,0.0,0.0
16/10/2023,05:53:03,0.001,0.0,0.0,0.0
16/10/2023,05:54:03,0.001,0.0,0.0,0.0
16/10/2023,05:55:03,-0.000,0.0,0.0,0.0
16/10/2023,05:56:03,0.000,0.0,0.0,0.0
16/10/2023,05:57:03,0.001,0.0,0.0,0.0
16/10/2023,05:58:03,0.001,0.0,0.0,0.0
16/10/2023,05:59:03,0.000,0.0,0.0,0.0
16/10/2023,06:00:03,0.001,0.0,0.0,0.0
16/10/2023,06:01:04,0.000,0.0,0.0,0.0
16/10/2023,06:02:03,0.001,0.0,0.0,0.0
16/10/2023,06:03:03,0.001,0.0,0.0,0.0
16/10/2023,06:04:03,0.001,0.0,0.0,0.0
16/10/2023,06:05:03,0.002,0.0,0.0,0.0
16/10/2023,06:06:04,-0.000,0.0,0.0,0.0
16/10/2023,06:07:03,0.001,0.0,0.0,0.0
16/10/2023,06:08:03,0.001,0.0,0.0,0.0
16/10/2023,06:09:03,0.001,0.0,0.0,0.0
16/10/2023,06:10:04,0.001,0.0,0.0,0.0
16/10/2023,06:11:04,0.000,0.0,0.0,0.0
16/10/2023,06:12:03,0.000,0.0,0.0,0.0
16/10/2023,06:13:03,-0.001,0.0,0.0,0.0
16/10/2023,06:14:04,0.001,0.0,0.0,0.0
16/10/2023,06:15:04,0.001,0.0,0.0,0.0
16/10/2023,06:16:04,0.000,0.0,0.0,0.0
16/10/2023,06:17:03,0.000,0.0,0.0,0.0
16/10/2023,06:18:04,0.001,0.0,0.0,0.0
16/10/2023,06:19:04,0.002,0.0,0.0,0.0
16/10/2023,06:20:04,0.001,0.0,0.0,0.0
16/10/2023,06:21:03,0.001,0.0,0.0,0.0
16/10/2023,06:22:04,0.002,0.0,0.0,0.0
16/10/2023,06:23:34,0.002,0.0,0.0,0.0
16/10/2023,06:24:03,0.001,0.0,0.0,0.0
16/10/2023,06:25:04,0.002,0.0,0.0,0.0
16/10/2023,06:26:04,0.002,0.0,0.0,0.0
16/10/2023,06:27:04,0.002,0.0,0.0,0.0
16/10/2023,06:28:04,0.002,0.0,0.0,0.0
16/10/2023,06:29:04,0.003,0.0,0.0,0.0
16/10/2023,06:30:04,0.002,0.0,0.0,0.0
16/10/2023,06:31:04,0.002,0.0,0.0,0.0
16/10/2023,06:32:04,0.003,0.0,0.0,0.0
16/10/2023,06:33:04,0.002,0.0,0.0,0.0
16/10/2023,06:34:05,0.003,0.0,0.0,0.0
16/10/2023,06:35:05,0.003,0.0,0.0,0.0
16/10/2023,06:36:04,0.003,0.0,0.0,0.0
16/10/2023,06:37:04,0.004,0.0,0.0,0.0
16/10/2023,06:38:05,0.004,0.0,0.0,0.0
16/10/2023,06:39:05,0.004,0.0,0.0,0.0
16/10/2023,06:40:04,0.003,0.0,0.0,0.0
16/10/2023,06:41:04,0.004,0.0,0.0,0.0
16/10/2023,06:42:05,0.005,0.0,0.0,0.0
16/10/2023,06:43:05,0.006,0.0,0.0,0.0
16/10/2023,06:44:04,0.006,0.0,0.0,0.0
16/10/2023,06:45:05,0.007,0.0,0.0,0.0
16/10/2023,06:46:05,0.006,0.0,0.0,0.0
16/10/2023,06:47:04,0.006,0.0,0.0,0.0
16/10/2023,06:48:05,0.007,0.0,0.0,0.0
16/10/2023,06:49:05,0.007,0.0,0.0,0.0
16/10/2023,06:50:05,0.007,0.0,0.0,0.0
16/10/2023,06:51:05,0.007,0.0,0.001,0.001
16/10/2023,06:52:05,0.008,0.0,0.001,0.0
16/10/2023,06:53:05,0.008,0.0,0.001,0.0
16/10/2023,06:54:05,0.009,0.0,0.001,0.0
16/10/2023,06:55:05,0.009,0.0,0.001,0.0
16/10/2023,06:56:05,0.009,0.0,0.001,0.0
16/10/2023,06:57:05,0.010,0.0,0.001,0.0
16/10/2023,06:58:05,0.011,0.0,0.002,0.001
16/10/2023,06:59:06,0.011,0.0,0.002,0.0
16/10/2023,07:00:05,0.011,0.0,0.002,0.0
16/10/2023,07:01:05,0.012,0.0,0.002,0.0
16/10/2023,07:02:05,0.012,0.0,0.002,0.0
16/10/2023,07:03:06,0.013,0.0,0.002,0.0
16/10/2023,07:04:05,0.014,0.0,0.003,0.001
16/10/2023,07:05:05,0.014,0.0,0.003,0.0
16/10/2023,07:06:05,0.015,0.0,0.003,0.0
16/10/2023,07:07:06,0.014,0.0,0.003,0.0
16/10/2023,07:08:06,0.016,0.0,0.004,0.001
16/10/2023,07:09:05,0.016,0.0,0.004,0.0
16/10/2023,07:10:06,0.017,0.0,0.004,0.0
16/10/2023,07:11:06,0.018,0.0,0.005,0.001
16/10/2023,07:12:05,0.019,0.0,0.005,0.0
16/10/2023,07:13:06,0.019,0.0,0.005,0.0
16/10/2023,07:14:06,0.020,0.0,0.005,0.0
16/10/2023,07:15:06,0.020,0.0,0.006,0.001
16/10/2023,07:16:06,0.020,0.0,0.006,0.0
16/10/2023,07:17:06,0.022,0.0,0.006,0.0
16/10/2023,07:18:06,0.023,0.0,0.007,0.001
16/10/2023,07:19:05,0.023,0.0,0.007,0.0
16/10/2023,07:20:06,0.024,0.0,0.008,0.001
16/10/2023,07:21:06,0.025,0.0,0.008,0.0
16/10/2023,07:22:06,0.025,0.0,0.008,0.0
16/10/2023,07:23:06,0.026,0.0,0.009,0.001
16/10/2023,07:24:06,0.028,0.0,0.009,0.0
16/10/2023,07:25:06,0.028,0.0,0.01,0.001
16/10/2023,07:26:06,0.029,0.0,0.01,0.0
16/10/2023,07:27:06,0.030,0.0,0.011,0.001
16/10/2023,07:28:06,0.031,0.0,0.011,0.0
16/10/2023,07:29:06,0.031,0.0,0.012,0.001
16/10/2023,07:30:06,0.033,0.0,0.012,0.0
16/10/2023,07:31:06,0.034,0.0,0.013,0.001
16/10/2023,07:32:06,0.036,0.0,0.013,0.0
16/10/2023,07:33:06,0.037,0.0,0.014,0.001
16/10/2023,07:34:06,0.038,0.0,0.015,0.001
16/10/2023,07:35:07,0.040,0.0,0.015,0.0
16/10/2023,07:36:06,0.040,0.0,0.016,0.001
16/10/2023,07:37:06,0.043,0.0,0.017,0.001
16/10/2023,07:38:06,0.043,0.0,0.017,0.0
16/10/2023,07:39:07,0.045,0.0,0.018,0.001
16/10/2023,07:40:07,0.045,0.0,0.019,0.001
16/10/2023,07:41:06,0.046,0.0,0.02,0.001
16/10/2023,07:42:06,0.047,0.0,0.02,0.0
16/10/2023,07:43:07,0.050,0.0,0.021,0.001
16/10/2023,07:44:07,0.050,0.0,0.022,0.001
16/10/2023,07:45:07,0.051,0.0,0.023,0.001
16/10/2023,07:46:06,0.055,0.0,0.024,0.001
16/10/2023,07:47:07,0.055,0.0,0.025,0.001
16/10/2023,07:48:07,0.058,0.0,0.026,0.001
16/10/2023,07:49:07,0.061,0.0,0.027,0.001
16/10/2023,07:50:06,0.062,0.0,0.028,0.001
16/10/2023,07:51:07,0.064,0.0,0.029,0.001
16/10/2023,07:52:07,0.067,0.0,0.03,0.001
16/10/2023,07:53:07,0.069,0.0,0.031,0.001
16/10/2023,07:54:07,0.071,0.0,0.032,0.001
16/10/2023,07:55:07,0.073,0.0,0.033,0.001
16/10/2023,07:56:07,0.076,0.0,0.035,0.002
16/10/2023,07:57:07,0.077,0.0,0.036,0.001
16/10/2023,07:58:07,0.079,0.0,0.037,0.001
16/10/2023,07:59:07,0.082,0.0,0.038,0.001
16/10/2023,08:00:07,0.084,0.0,0.04,0.002
16/10/2023,08:01:08,0.086,0.0,0.041,0.001
16/10/2023,08:02:07,0.088,0.0,0.043,0.002
16/10/2023,08:03:07,0.090,0.0,0.044,0.001
16/10/2023,08:04:07,0.092,0.0,0.046,0.002
16/10/2023,08:05:08,0.093,0.0,0.047,0.001
16/10/2023,08:06:07,0.096,0.0,0.049,0.002
16/10/2023,08:07:07,0.099,0.0,0.05,0.001
16/10/2023,08:08:07,0.101,0.0,0.052,0.002
16/10/2023,08:09:08,0.102,0.0,0.054,0.002
16/10/2023,08:10:07,0.105,0.0,0.055,0.001
16/10/2023,08:11:07,0.107,0.0,0.057,0.002
16/10/2023,08:12:07,0.110,0.0,0.059,0.002
16/10/2023,08:13:08,0.112,0.0,0.061,0.002
16/10/2023,08:14:08,0.113,0.0,0.063,0.002
16/10/2023,08:15:07,0.116,0.0,0.065,0.002
16/10/2023,08:16:07,0.118,0.0,0.067,0.002
16/10/2023,08:17:08,0.121,0.0,0.069,0.002
16/10/2023,08:18:08,0.124,0.0,0.071,0.002
16/10/2023,08:19:07,0.124,0.0,0.073,0.002
16/10/2023,08:20:08,0.130,0.0,0.075,0.002
16/10/2023,08:21:08,0.133,0.0,0.077,0.002
16/10/2023,08:22:08,0.136,0.0,0.079,0.002
16/10/2023,08:23:07,0.139,0.0,0.082,0.003
16/10/2023,08:24:08,0.140,0.0,0.084,0.002
16/10/2023,08:25:08,0.141,0.0,0.086,0.002
16/10/2023,08:26:08,0.144,0.0,0.089,0.003
16/10/2023,08:27:08,0.146,0.0,0.091,0.002
16/10/2023,08:28:08,0.147,0.0,0.094,0.003
16/10/2023,08:29:08,0.150,0.0,0.096,0.002
16/10/2023,08:30:08,0.154,0.0,0.099,0.003
16/10/2023,08:31:08,0.154,0.0,0.101,0.002
16/10/2023,08:32:09,0.156,0.0,0.104,0.003
